Location: Asheville, NC
(35.6000°N, 82.5500°W)
Time: 04:22:34
(UTC-05:00)

Vanguard 1 Rocket - Pass Details

Date: 07 December 2017
Orbit: 656 x 4222 km, 34.3° (Epoch: 17 January)

Event Time Altitude Azimuth Distance (km) Brightness Sun altitude
Rises 22:02:59 0° 275° (W) 6,315 12.2 -57.2°
Reaches altitude 10° 22:06:25 10° 275° (W) 5,669 11.8 -57.9°
Enters shadow 22:20:33 63° 266° (W) 4,020 10.4 -60.7°
